Regional Weather Roundup
Issued by NWS Cleveland, OH

Home | Current Version | Previous Version | Graphics & Text | Print | Product List | Glossary On
Versions: 1 2 3 4 5 6 7 8 9 10 11 12 13 14 15 16 17 18 19 20 21 22 23 24 25 26 27 28 29 30 31 32 33 34 35 36 37 38 39 40 41 42 43 44 45 46 47 48 49 50
000
ASUS41 KCLE 231510
RWRCLE
OHIO REGIONAL WEATHER ROUNDUP
NATIONAL WEATHER SERVICE WILMINGTON, OH
1000 AM EST MON JAN 23 2017

NOTE: "FAIR" INDICATES FEW OR NO CLOUDS BELOW 12,000 FEET WITH NO
SIGNIFICANT WEATHER AND/OR OBSTRUCTIONS TO VISIBILITY.

OHZ001>008-015>018-024>027-034-035-043-044-231600-
   NORTHWEST OHIO

CITY           SKY/WX    TMP DP  RH WIND       PRES   REMARKS
DEFIANCE       CLOUDY    42  41  96 NE12      29.66R FOG
FINDLAY        LGT RAIN  40  36  86 NE14      29.60R FOG
TOLEDO EXPRESS LGT RAIN  39  39 100 NE15      29.66R
TOLEDO EXEC    LGT RAIN  37  37 100 NE9       29.67R FOG
LIMA           LGT RAIN  39  39 100 N13       29.60R
$$

OHZ009>014-019>023-028>033-038-089-231600-
   NORTHEAST OHIO

CITY           SKY/WX    TMP DP  RH WIND       PRES   REMARKS
CLE-HOPKINS    FOG       40  37  89 NE13      29.63S VSB 1/2
CLE-LAKEFRONT  CLOUDY    38  37  97 NE14      29.62S FOG
CUY CO. ARPT   CLOUDY    43  41  93 NE12      29.62R FOG
LORAIN-ELYRIA  LGT RAIN  38  35  89 NE14      29.62S FOG
ASHTABULA      CLOUDY    39  39 100 NE7       29.64S FOG
AKRON-CANTON   LGT RAIN  48  44  86 NE15      29.56R FOG
WOOSTER        LGT RAIN  47  45  93 NE12      29.57S
MANSFIELD      RAIN      45  44  97 NE13      29.57R FOG
YOUNGSTOWN     CLOUDY    48  42  80 E13       29.59S
$$

OHZ042-051>053-060>062-070>072-077>081-231600-
  SOUTHWEST OHIO

CITY           SKY/WX    TMP DP  RH WIND       PRES   REMARKS
CINC-COVINGTON CLOUDY    45  43  93 N15G29    29.53R FOG
CINC-LUNKEN    CLOUDY    46  44  93 N20G29    29.54R
HAMILTON       CLOUDY    46  43  89 N10       29.56R
DAYTON         LGT RAIN  42  41  96 N14       29.56R FOG
WRIGHT-PAT AFB NOT AVBL
DAYTON GENERAL LGT RAIN  43  42  97 N14       29.53R FOG
WILMINGTON     LGT RAIN  45  44  97 N15       29.50R FOG
$$

OHZ036-037-039>041-045>050-054>059-063>069-073>076-082>088-231600-
  CENTRAL AND SOUTHEAST OHIO

CITY           SKY/WX    TMP DP  RH WIND       PRES   REMARKS
COLUMBUS       LGT RAIN  52  47  83 NE13G22   29.50R
OSU AIRPORT    CLOUDY    47  47 100 N10       29.52R FOG
BOLTON FIELD   CLOUDY    46  46 100 N12       29.51R FOG
RICKENBACK AFB DRIZZLE   50  48  92 NE14      29.49R
NEWARK         LGT RAIN  50  47  89 NE7       29.49R
MARION         LGT RAIN  45  43  93 NE14      29.56R
LANCASTER      LGT RAIN  51  48  89 NE12      29.49R
ZANESVILLE     LGT RAIN  50  45  83 NE10      29.49R
NEW PHILLY     CLOUDY    49  45  86 NE10G20   29.54R
$$



USA.gov is the U.S. government's official web portal to all federal, state and local government web resources and services.